Time,TemperatureF,DewpointF,PressureIn,WindDirection,WindDirectionDegrees,WindSpeedMPH,WindSpeedGustMPH,Humidity,HourlyPrecipIn,Conditions,Clouds,dailyrainin,SoftwareType,DateUTC
2018-01-19 00:06:00,30.6,26.0,29.70,South,184,5.0,-999.0,82,-99.99,,,0.00,weatherlink.com 1.10,2018-01-19 06:06:00,
2018-01-19 00:21:00,30.6,26.0,29.71,South,181,2.0,-999.0,82,-99.99,,,0.00,weatherlink.com 1.10,2018-01-19 06:21:00,
2018-01-19 00:36:00,30.7,26.0,29.70,South,186,4.0,-999.0,82,-99.99,,,0.00,weatherlink.com 1.10,2018-01-19 06:36:00,
2018-01-19 00:51:00,30.7,26.0,29.70,South,191,5.0,-999.0,81,-99.99,,,0.00,weatherlink.com 1.10,2018-01-19 06:51:00,
2018-01-19 01:06:00,30.7,26.0,29.70,SSW,194,6.0,-999.0,81,-99.99,,,0.00,weatherlink.com 1.10,2018-01-19 07:06:00,
2018-01-19 01:21:00,30.7,26.0,29.69,South,182,4.0,-999.0,82,-99.99,,,0.00,weatherlink.com 1.10,2018-01-19 07:21:00,
2018-01-19 01:36:00,30.7,26.0,29.69,South,186,4.0,-999.0,82,-99.99,,,0.00,weatherlink.com 1.10,2018-01-19 07:36:00,
2018-01-19 01:51:00,30.7,26.0,29.68,South,185,4.0,-999.0,82,-99.99,,,0.00,weatherlink.com 1.10,2018-01-19 07:51:00,
2018-01-19 02:06:00,31.0,26.0,29.67,South,177,5.0,-999.0,82,-99.99,,,0.00,weatherlink.com 1.10,2018-01-19 08:06:00,
2018-01-19 02:21:00,31.3,26.0,29.68,SSW,205,4.0,-999.0,81,-99.99,,,0.00,weatherlink.com 1.10,2018-01-19 08:21:00,
2018-01-19 02:36:00,31.2,26.0,29.67,South,179,2.0,-999.0,80,-99.99,,,0.00,weatherlink.com 1.10,2018-01-19 08:36:00,
2018-01-19 02:56:00,30.9,26.0,29.67,South,184,4.0,-999.0,81,-99.99,,,0.00,weatherlink.com 1.10,2018-01-19 08:56:00,
2018-01-19 03:06:00,30.7,26.0,29.66,South,185,2.0,-999.0,81,-99.99,,,0.00,weatherlink.com 1.10,2018-01-19 09:06:00,
2018-01-19 03:22:00,30.7,25.0,29.66,South,186,5.0,-999.0,80,-99.99,,,0.00,weatherlink.com 1.10,2018-01-19 09:22:00,
2018-01-19 03:36:00,30.7,25.0,29.65,SSW,198,5.0,-999.0,80,-99.99,,,0.00,weatherlink.com 1.10,2018-01-19 09:36:00,
2018-01-19 03:51:00,30.7,25.0,29.65,South,183,2.0,-999.0,80,-99.99,,,0.00,weatherlink.com 1.10,2018-01-19 09:51:00,
2018-01-19 04:06:00,30.7,25.0,29.64,South,183,0.0,-999.0,80,-99.99,,,0.00,weatherlink.com 1.10,2018-01-19 10:06:00,
2018-01-19 04:21:00,30.6,25.0,29.64,South,185,0.0,-999.0,80,-99.99,,,0.00,weatherlink.com 1.10,2018-01-19 10:21:00,
2018-01-19 04:36:00,30.3,25.0,29.64,South,185,3.0,-999.0,80,-99.99,,,0.00,weatherlink.com 1.10,2018-01-19 10:36:00,
2018-01-19 04:51:00,30.0,25.0,29.64,South,185,3.0,-999.0,80,-99.99,,,0.00,weatherlink.com 1.10,2018-01-19 10:51:00,
2018-01-19 05:06:00,29.8,24.0,29.62,South,184,0.0,-999.0,80,-99.99,,,0.00,weatherlink.com 1.10,2018-01-19 11:06:00,
2018-01-19 05:21:00,29.8,24.0,29.61,South,184,3.0,-999.0,80,-99.99,,,0.00,weatherlink.com 1.10,2018-01-19 11:21:00,
2018-01-19 05:36:00,30.0,25.0,29.62,South,184,2.0,-999.0,80,-99.99,,,0.00,weatherlink.com 1.10,2018-01-19 11:36:00,
2018-01-19 05:51:00,30.3,25.0,29.60,South,186,6.0,-999.0,79,-99.99,,,0.00,weatherlink.com 1.10,2018-01-19 11:51:00,
2018-01-19 06:06:00,30.4,25.0,29.60,South,188,3.0,-999.0,79,-99.99,,,0.00,weatherlink.com 1.10,2018-01-19 12:06:00,
2018-01-19 06:21:00,30.7,25.0,29.60,South,185,0.0,-999.0,78,-99.99,,,0.00,weatherlink.com 1.10,2018-01-19 12:21:00,
2018-01-19 06:36:00,30.9,25.0,29.59,South,186,0.0,-999.0,77,-99.99,,,0.00,weatherlink.com 1.10,2018-01-19 12:36:00,
2018-01-19 06:51:00,30.6,24.0,29.58,South,186,0.0,-999.0,77,-99.99,,,0.00,weatherlink.com 1.10,2018-01-19 12:51:00,
2018-01-19 07:07:00,30.3,24.0,29.58,South,186,4.0,-999.0,77,-99.99,,,0.00,weatherlink.com 1.10,2018-01-19 13:07:00,
2018-01-19 07:22:00,30.6,24.0,29.57,South,181,5.0,-999.0,76,-99.99,,,0.00,weatherlink.com 1.10,2018-01-19 13:22:00,
2018-01-19 07:37:00,31.0,24.0,29.57,SSW,193,7.0,-999.0,74,-99.99,,,0.00,weatherlink.com 1.10,2018-01-19 13:37:00,
2018-01-19 07:52:00,30.9,24.0,29.57,South,181,0.0,-999.0,74,-99.99,,,0.00,weatherlink.com 1.10,2018-01-19 13:52:00,
2018-01-19 08:07:00,30.9,24.0,29.56,SSE,160,4.0,-999.0,74,-99.99,,,0.00,weatherlink.com 1.10,2018-01-19 14:07:00,
2018-01-19 08:22:00,30.7,23.0,29.56,South,186,0.0,-999.0,74,-99.99,,,0.00,weatherlink.com 1.10,2018-01-19 14:22:00,
2018-01-19 08:37:00,30.9,24.0,29.56,South,177,4.0,-999.0,74,-99.99,,,0.00,weatherlink.com 1.10,2018-01-19 14:37:00,
2018-01-19 08:52:00,31.0,24.0,29.57,SW,224,5.0,-999.0,74,-99.99,,,0.00,weatherlink.com 1.10,2018-01-19 14:52:00,
2018-01-19 09:07:00,31.3,24.0,29.57,WSW,240,8.0,-999.0,73,-99.99,,,0.00,weatherlink.com 1.10,2018-01-19 15:07:00,
2018-01-19 09:22:00,31.9,24.0,29.56,South,188,6.0,-999.0,72,-99.99,,,0.00,weatherlink.com 1.10,2018-01-19 15:22:00,
2018-01-19 09:37:00,32.5,24.0,29.55,SSE,157,4.0,-999.0,71,-99.99,,,0.00,weatherlink.com 1.10,2018-01-19 15:37:00,
2018-01-19 09:52:00,33.2,24.0,29.54,South,175,4.0,-999.0,70,-99.99,,,0.00,weatherlink.com 1.10,2018-01-19 15:52:00,
2018-01-19 10:07:00,34.1,25.0,29.53,SSW,193,7.0,-999.0,68,-99.99,,,0.00,weatherlink.com 1.10,2018-01-19 16:07:00,
2018-01-19 10:22:00,35.2,25.0,29.53,SSW,205,10.0,-999.0,67,-99.99,,,0.00,weatherlink.com 1.10,2018-01-19 16:22:00,
2018-01-19 10:37:00,35.9,26.0,29.52,South,178,5.0,-999.0,67,-99.99,,,0.00,weatherlink.com 1.10,2018-01-19 16:37:00,
2018-01-19 10:52:00,36.2,26.0,29.52,South,186,6.0,-999.0,67,-99.99,,,0.00,weatherlink.com 1.10,2018-01-19 16:52:00,
2018-01-19 11:07:00,36.6,26.0,29.51,South,179,5.0,-999.0,66,-99.99,,,0.00,weatherlink.com 1.10,2018-01-19 17:07:00,
2018-01-19 11:22:00,37.2,26.0,29.51,South,186,7.0,-999.0,65,-99.99,,,0.00,weatherlink.com 1.10,2018-01-19 17:22:00,
2018-01-19 11:37:00,37.3,27.0,29.49,South,172,5.0,-999.0,66,-99.99,,,0.00,weatherlink.com 1.10,2018-01-19 17:37:00,
2018-01-19 11:52:00,37.5,27.0,29.49,South,187,11.0,-999.0,65,-99.99,,,0.00,weatherlink.com 1.10,2018-01-19 17:52:00,
2018-01-19 12:07:00,37.8,27.0,29.48,SSW,207,7.0,-999.0,64,-99.99,,,0.00,weatherlink.com 1.10,2018-01-19 18:07:00,
2018-01-19 12:22:00,37.9,27.0,29.46,SSE,162,8.0,-999.0,65,-99.99,,,0.00,weatherlink.com 1.10,2018-01-19 18:22:00,
2018-01-19 12:37:00,37.9,27.0,29.46,SSE,166,3.0,-999.0,65,-99.99,,,0.00,weatherlink.com 1.10,2018-01-19 18:37:00,
2018-01-19 12:52:00,38.2,27.0,29.45,SSW,199,5.0,-999.0,64,-99.99,,,0.00,weatherlink.com 1.10,2018-01-19 18:52:00,
2018-01-19 13:07:00,39.1,27.0,29.46,SSW,201,4.0,-999.0,63,-99.99,,,0.00,weatherlink.com 1.10,2018-01-19 19:07:00,
2018-01-19 13:22:00,39.6,27.0,29.46,South,182,3.0,-999.0,62,-99.99,,,0.00,weatherlink.com 1.10,2018-01-19 19:22:00,
2018-01-19 13:37:00,39.9,28.0,29.45,SSW,193,1.0,-999.0,62,-99.99,,,0.00,weatherlink.com 1.10,2018-01-19 19:37:00,
2018-01-19 13:52:00,40.3,28.0,29.45,South,175,0.0,-999.0,63,-99.99,,,0.00,weatherlink.com 1.10,2018-01-19 19:52:00,
2018-01-19 14:07:00,41.3,29.0,29.46,SSW,204,0.0,-999.0,61,-99.99,,,0.00,weatherlink.com 1.10,2018-01-19 20:07:00,
2018-01-19 14:22:00,41.9,29.0,29.46,SSW,203,0.0,-999.0,61,-99.99,,,0.00,weatherlink.com 1.10,2018-01-19 20:22:00,
2018-01-19 14:37:00,42.6,30.0,29.46,SSW,197,0.0,-999.0,61,-99.99,,,0.00,weatherlink.com 1.10,2018-01-19 20:37:00,
2018-01-19 14:52:00,42.9,30.0,29.45,SW,224,0.0,-999.0,61,-99.99,,,0.00,weatherlink.com 1.10,2018-01-19 20:52:00,
2018-01-19 15:07:00,43.2,31.0,29.46,SSW,196,2.0,-999.0,62,-99.99,,,0.00,weatherlink.com 1.10,2018-01-19 21:07:00,
2018-01-19 15:22:00,43.6,31.0,29.47,SSW,197,0.0,-999.0,62,-99.99,,,0.00,weatherlink.com 1.10,2018-01-19 21:22:00,
2018-01-19 15:37:00,43.3,31.0,29.47,SW,231,0.0,-999.0,62,-99.99,,,0.00,weatherlink.com 1.10,2018-01-19 21:37:00,
2018-01-19 15:52:00,42.6,31.0,29.47,South,185,0.0,-999.0,64,-99.99,,,0.00,weatherlink.com 1.10,2018-01-19 21:52:00,